Stündliche Wetter Abaetetuba

Heute, 17 Juni, Donnerstag

Zeit Temperatur Niederschläge Wind Luftdruck Luftfeuchtigkeit
00:00 +26°C° 0.2 mm 2 m/S 759 mmHg 92%
01:00 +26°C° 0.1 mm 2 m/S 759 mmHg 91%
02:00 +26°C° 0.1 mm 2 m/S 758 mmHg 91%
03:00 +26°C° 0.1 mm 2 m/S 758 mmHg 91%
04:00 +25°C° 0.1 mm 2 m/S 758 mmHg 92%
05:00 +25°C° 0.1 mm 2 m/S 758 mmHg 92%
06:00 +25°C° 0.1 mm 2 m/S 759 mmHg 93%
07:00 +27°C° 0.1 mm 2 m/S 759 mmHg 87%
08:00 +28°C° 0.1 mm 2 m/S 760 mmHg 81%
09:00 +29°C° 0.1 mm 2 m/S 760 mmHg 74%
10:00 +31°C° 0 mm 2 m/S 760 mmHg 66%
11:00 +34°C° 0 mm 2 m/S 759 mmHg 58%
12:00 +34°C° 0 mm 1 m/S 759 mmHg 50%
13:00 +33°C° 0 mm 1 m/S 758 mmHg 55%
14:00 +32°C° 0 mm 1 m/S 758 mmHg 61%
15:00 +31°C° 0 mm 1 m/S 757 mmHg 66%
16:00 +30°C° 0.1 mm 2 m/S 757 mmHg 72%
17:00 +29°C° 0.1 mm 2 m/S 757 mmHg 78%
18:00 +28°C° 0.1 mm 2 m/S 757 mmHg 84%
19:00 +27°C° 0.2 mm 2 m/S 758 mmHg 87%
20:00 +26°C° 0.2 mm 2 m/S 758 mmHg 90%
21:00 +26°C° 0.2 mm 2 m/S 759 mmHg 93%
22:00 +25°C° 0 mm 2 m/S 759 mmHg 94%
23:00 +25°C° 0 mm 2 m/S 759 mmHg 94%

Morgen, 18 Juni, Freitag

Zeit Temperatur Niederschläge Wind Luftdruck Luftfeuchtigkeit
00:00 +25°C° 0 mm 2 m/S 759 mmHg 95%
01:00 +25°C° 0 mm 2 m/S 759 mmHg 96%
02:00 +25°C° 0 mm 2 m/S 759 mmHg 96%
03:00 +24°C° 0 mm 2 m/S 758 mmHg 97%
04:00 +24°C° 0 mm 2 m/S 759 mmHg 97%
05:00 +24°C° 0 mm 2 m/S 759 mmHg 97%
06:00 +24°C° 0 mm 1 m/S 759 mmHg 97%
07:00 +26°C° 0 mm 2 m/S 760 mmHg 89%
08:00 +28°C° 0 mm 2 m/S 760 mmHg 81%
09:00 +29°C° 0 mm 2 m/S 761 mmHg 74%
10:00 +31°C° 0 mm 2 m/S 760 mmHg 67%
11:00 +32°C° 0 mm 2 m/S 760 mmHg 60%
12:00 +35°C° 0 mm 2 m/S 760 mmHg 53%
13:00 +32°C° 0.6 mm 2 m/S 759 mmHg 64%
14:00 +30°C° 0.6 mm 2 m/S 759 mmHg 75%
15:00 +28°C° 0.6 mm 3 m/S 758 mmHg 86%
16:00 +27°C° 1.7 mm 2 m/S 758 mmHg 89%
17:00 +27°C° 1.7 mm 2 m/S 759 mmHg 92%
18:00 +26°C° 1.7 mm 2 m/S 759 mmHg 95%
19:00 +26°C° 0.9 mm 2 m/S 759 mmHg 95%
20:00 +25°C° 0.9 mm 2 m/S 760 mmHg 96%
21:00 +25°C° 0.9 mm 2 m/S 761 mmHg 97%
22:00 +25°C° 0.3 mm 2 m/S 761 mmHg 97%
23:00 +25°C° 0.3 mm 2 m/S 761 mmHg 97%

übermorgen, 19 Juni, Samstag

Zeit Temperatur Niederschläge Wind Luftdruck Luftfeuchtigkeit
00:00 +25°C° 0.3 mm 2 m/S 760 mmHg 97%
01:00 +25°C° 0 mm 2 m/S 760 mmHg 97%
02:00 +24°C° 0 mm 2 m/S 759 mmHg 97%
03:00 +24°C° 0 mm 2 m/S 759 mmHg 97%
04:00 +24°C° 0 mm 2 m/S 759 mmHg 97%
05:00 +24°C° 0 mm 2 m/S 759 mmHg 97%
06:00 +24°C° 0 mm 2 m/S 760 mmHg 97%
07:00 +26°C° 0 mm 3 m/S 760 mmHg 91%
08:00 +27°C° 0 mm 3 m/S 761 mmHg 85%
09:00 +29°C° 0 mm 3 m/S 761 mmHg 78%
10:00 +30°C° 0.1 mm 3 m/S 761 mmHg 70%
11:00 +33°C° 0.1 mm 3 m/S 760 mmHg 61%
12:00 +35°C° 0.1 mm 3 m/S 760 mmHg 53%
13:00 +34°C° 0.6 mm 3 m/S 760 mmHg 59%
14:00 +33°C° 0.6 mm 3 m/S 759 mmHg 66%
15:00 +31°C° 0.6 mm 3 m/S 759 mmHg 72%
16:00 +29°C° 1.1 mm 3 m/S 759 mmHg 79%
17:00 +28°C° 1.1 mm 3 m/S 759 mmHg 87%
18:00 +26°C° 1.1 mm 2 m/S 759 mmHg 94%
19:00 +26°C° 0.2 mm 2 m/S 760 mmHg 94%
20:00 +26°C° 0.2 mm 2 m/S 760 mmHg 95%
21:00 +25°C° 0.2 mm 2 m/S 761 mmHg 95%
22:00 +25°C° 0 mm 2 m/S 761 mmHg 96%
23:00 +25°C° 0 mm 2 m/S 761 mmHg 96%

20 Juni, Sonntag

Zeit Temperatur Niederschläge Wind Luftdruck Luftfeuchtigkeit
00:00 +25°C° 0 mm 2 m/S 761 mmHg 97%
01:00 +25°C° 0 mm 2 m/S 760 mmHg 97%
02:00 +25°C° 0 mm 2 m/S 760 mmHg 97%
03:00 +24°C° 0 mm 2 m/S 759 mmHg 97%
04:00 +24°C° 0 mm 2 m/S 759 mmHg 97%
05:00 +24°C° 0 mm 2 m/S 759 mmHg 97%
06:00 +24°C° 0 mm 2 m/S 759 mmHg 97%
07:00 +26°C° 0 mm 2 m/S 760 mmHg 89%
08:00 +27°C° 0 mm 2 m/S 760 mmHg 82%
09:00 +29°C° 0 mm 3 m/S 760 mmHg 74%
10:00 +31°C° 0 mm 3 m/S 760 mmHg 67%
11:00 +32°C° 0 mm 2 m/S 760 mmHg 59%
12:00 +35°C° 0 mm 2 m/S 759 mmHg 51%
13:00 +34°C° 0.1 mm 2 m/S 759 mmHg 58%
14:00 +32°C° 0.1 mm 2 m/S 758 mmHg 64%
15:00 +31°C° 0.1 mm 1 m/S 758 mmHg 71%
16:00 +29°C° 0.4 mm 1 m/S 758 mmHg 78%
17:00 +28°C° 0.4 mm 1 m/S 758 mmHg 84%
18:00 +27°C° 0.4 mm 1 m/S 758 mmHg 91%
19:00 +26°C° 0.5 mm 1 m/S 759 mmHg 93%
20:00 +25°C° 0.5 mm 2 m/S 759 mmHg 94%
21:00 +25°C° 0.5 mm 2 m/S 760 mmHg 96%
22:00 +25°C° 0.7 mm 2 m/S 760 mmHg 96%
23:00 +25°C° 0.7 mm 2 m/S 760 mmHg 96%

21 Juni, Montag

Zeit Temperatur Niederschläge Wind Luftdruck Luftfeuchtigkeit
00:00 +24°C° 0.7 mm 2 m/S 760 mmHg 97%
01:00 +24°C° 0.5 mm 1 m/S 759 mmHg 97%
02:00 +24°C° 0.5 mm 1 m/S 759 mmHg 97%
03:00 +24°C° 0.5 mm 1 m/S 758 mmHg 97%
04:00 +24°C° 0 mm 1 m/S 759 mmHg 97%
05:00 +24°C° 0 mm 1 m/S 759 mmHg 97%
06:00 +24°C° 0 mm 1 m/S 759 mmHg 97%
07:00 +25°C° 0 mm 1 m/S 759 mmHg 91%
08:00 +27°C° 0 mm 2 m/S 760 mmHg 86%
09:00 +28°C° 0 mm 2 m/S 761 mmHg 80%
10:00 +30°C° 0 mm 2 m/S 760 mmHg 70%
11:00 +32°C° 0 mm 2 m/S 760 mmHg 60%
12:00 +35°C° 0 mm 2 m/S 759 mmHg 50%
13:00 +32°C° 0.1 mm 2 m/S 759 mmHg 59%
14:00 +31°C° 0.1 mm 2 m/S 758 mmHg 67%
15:00 +29°C° 0.1 mm 1 m/S 757 mmHg 76%
16:00 +28°C° 0.4 mm 1 m/S 758 mmHg 81%
17:00 +27°C° 0.4 mm 1 m/S 758 mmHg 87%
18:00 +26°C° 0.4 mm 1 m/S 758 mmHg 92%
19:00 +26°C° 0.5 mm 2 m/S 758 mmHg 93%
20:00 +26°C° 0.5 mm 2 m/S 759 mmHg 95%
21:00 +25°C° 0.5 mm 2 m/S 759 mmHg 96%
22:00 +25°C° 0.1 mm 2 m/S 759 mmHg 96%
23:00 +25°C° 0.1 mm 2 m/S 759 mmHg 95%

22 Juni, Dienstag

Zeit Temperatur Niederschläge Wind Luftdruck Luftfeuchtigkeit
00:00 +25°C° 0.1 mm 2 m/S 759 mmHg 95%
01:00 +25°C° 0 mm 2 m/S 759 mmHg 96%
02:00 +24°C° 0 mm 2 m/S 759 mmHg 97%
03:00 +24°C° 0 mm 2 m/S 758 mmHg 97%
04:00 +24°C° 0 mm 2 m/S 758 mmHg 97%
05:00 +24°C° 0 mm 2 m/S 758 mmHg 97%
06:00 +24°C° 0 mm 2 m/S 759 mmHg 97%
07:00 +26°C° 0 mm 2 m/S 759 mmHg 90%
08:00 +27°C° 0 mm 2 m/S 760 mmHg 83%
09:00 +29°C° 0 mm 2 m/S 760 mmHg 75%
10:00 +31°C° 0 mm 2 m/S 760 mmHg 68%
11:00 +32°C° 0 mm 2 m/S 760 mmHg 60%
12:00 +35°C° 0 mm 2 m/S 759 mmHg 52%
13:00 +32°C° 0.1 mm 2 m/S 759 mmHg 58%
14:00 +31°C° 0.1 mm 2 m/S 758 mmHg 64%
15:00 +30°C° 0.1 mm 1 m/S 757 mmHg 69%
16:00 +29°C° 0.6 mm 2 m/S 758 mmHg 77%
17:00 +27°C° 0.6 mm 2 m/S 758 mmHg 85%
18:00 +26°C° 0.6 mm 2 m/S 758 mmHg 93%
19:00 +25°C° 0.1 mm 2 m/S 758 mmHg 94%
20:00 +25°C° 0.1 mm 2 m/S 759 mmHg 94%
21:00 +25°C° 0.1 mm 2 m/S 759 mmHg 95%
22:00 +25°C° 0.1 mm 2 m/S 759 mmHg 95%
23:00 +24°C° 0.1 mm 2 m/S 759 mmHg 96%
Mehr zeigen

Wir brauchen deine Erlaubnis

Meteoprog und unser Service Anbieter werden persönliche Daten aufbewahren, so wie Cookies, Geräte Bezeichnung oder ähnliche Technologien von deinem Gerät und Prozess, so wie Persönliche Daten Inhalte und Werbungen, genauso wie social Media und den Verkehr zu analysieren.

  • Aufbewahrung und/oder Zugang zu deiner Geräte Informationen.

    Cookies, Geräte Bezeichnung oder andere Informationen, können aufbewahrt oder Zugang zu deinem Gerät erhalten, für den Grund, der oben angegeben wird.

  • Personalisierte Werbung und Inhalte, Messungen, Einblick in das Publikum und Produkt Entwicklung.

    Werbungen und Inhalte können personalisiert werden, basierend auf ein Profil. Mehr Daten können besser personalisierte Werbungen und Inhalte hinzufügen. Werbung und Inhalte können gezeigt und gemessen werden. Einblicke über das Publikum, welche die Werbung gesehen haben und den Inhalt, können abgeleitet werden. So wie Daten können genutzt werden, um es zu verbessern oder die Benutzer Erfahrung zu verbessern das System und die Software.

Wenn du “Ich stimme zu” klickst, erlaubst du uns, die Cookies zu benutzen die Geräte Bezeichnung, den Web oder ähnliche Technologien zu benutzen. Deine Settings, können in deinem Gerät bei deinem Browser geändert werden.

Für den bestimmten Zweck, berechtigten Interessen beruhen darauf, mehr als auf den Inhalt. Du kannst mehr darüber in unseren Privaten und Cookie Politik lesen.